Regional Weather Roundup
Issued by NWS

Home | Current Version | Previous Version | Graphics & Text | Print | Product List | Glossary On
Versions: 1 2 3 4 5 6 7 8 9 10 11 12 13 14 15 16 17 18 19 20 21 22 23 24 25 26 27 28 29 30 31 32 33 34 35 36 37 38 39 40 41 42 43 44 45 46 47 48 49 50
000
ASUS43 KOAX 250002
RWRNE

WEATHER ROUNDUP FOR NEBRASKA
NATIONAL WEATHER SERVICE OMAHA NE
700 PM CDT THU JUL 24 2014

NOTES: SATELLITE DATA IS BEING USED TO AUGMENT CLOUD COVER ABOVE
       12000 FEET.
       "FAIR" INDICATES FEW OR NO CLOUDS BELOW 12,000 FEET WITH NO
       SIGNIFICANT WEATHER AND/OR OBSTRUCTIONS TO VISIBILITY.

  * THESE STATIONS DO NOT REPORT WEATHER SUCH AS RAIN...SNOW OR FOG.

NEZ001>004-019>022-054>056-250100-
NEBRASKA PANHANDLE

CITY           SKY/WX    TMP DP  RH WIND       PRES   REMARKS
SCOTTSBLUFF    PTSUNNY   86  54  33 S24G31    29.90R
6HR MIN TEMP:  85; 6HR MAX TEMP: 105;

ALLIANCE       LGT RAIN  78  60  53 S18       29.93R
6HR MIN TEMP:  78; 6HR MAX TEMP: 105; 6HR PCP: TRACE;

CHADRON        CLOUDY    97  46  17 E5        29.77F HX  93
6HR MIN TEMP:  91; 6HR MAX TEMP: 108; 6HR PCP: TRACE;

KIMBALL        CLOUDY    78  57  47 E7        30.00S
SIDNEY         CLOUDY    79  55  43 N6        30.03R
6HR MIN TEMP:  78; 6HR MAX TEMP: 104; 6HR PCP: TRACE;

$$

NEZ057>060-069>072-079>082-250100-
SOUTHWEST NEBRASKA

CITY           SKY/WX    TMP DP  RH WIND       PRES   REMARKS
NORTH PLATTE   MOSUNNY   94  58  29 S10       29.78F HX  93
6HR MIN TEMP:  90; 6HR MAX TEMP: 100;

IMPERIAL       CLOUDY    90  52  27 W17G25    29.86R
6HR MIN TEMP:  90; 6HR MAX TEMP: 105;

LEXINGTON      SUNNY     91  72  53 S17G28    29.81F HX  98
MCCOOK         PTSUNNY   96  54  24 S18       29.80F HX  94
6HR MIN TEMP:  93; 6HR MAX TEMP: 104;

OGALLALA       CLOUDY    82  60  46 W10       29.86R THUNDER
$$

NEZ005>010-023>029-035>040-094-250100-
NORTH CENTRAL NEBRASKA

CITY           SKY/WX    TMP DP  RH WIND       PRES   REMARKS
VALENTINE      LGT RAIN  97  66  36 S20G29    29.72S HX 100
6HR MIN TEMP:  93; 6HR MAX TEMP: 104; 6HR PCP: TRACE;

AINSWORTH      MOSUNNY   89  69  50 S23G31    29.76S HX  93
BROKEN BOW     MOSUNNY   91  70  49 S20G26    29.81F HX  96
6HR MIN TEMP:  86; 6HR MAX TEMP:  93;

O`NEILL        SUNNY     88  65  47 SE20G25   29.83R
ORD            SUNNY     85  69  58 SE15      29.80F
6HR MIN TEMP:  80; 6HR MAX TEMP:  88;

THEDFORD       CLOUDY    94  70  45 S22G28    29.78F HX  99
$$

NEZ041-046>049-061>064-073>077-083>087-250100-
SOUTH CENTRAL NEBRASKA

CITY           SKY/WX    TMP DP  RH WIND       PRES   REMARKS
GRAND ISLAND   SUNNY     85  69  58 SE18G26   29.85F
6HR MIN TEMP:  82; 6HR MAX TEMP:  88;

AURORA         SUNNY     85  69  57 SE14G23   29.87F
HASTINGS       SUNNY     91  63  39 S15G26    29.86F HX  92
6HR MIN TEMP:  82; 6HR MAX TEMP:  91;

HEBRON         SUNNY     87  64  45 SE17G23   29.90S
HOLDREGE       SUNNY     92  68  45 S20G31    29.83F HX  95
KEARNEY *      SUNNY     91  72  52 SE16G23   29.83F HX  98
YORK           SUNNY     86  66  51 NE18G25   29.89F
$$

NEZ011>018-030>034-042>045-250100-
NORTHEAST NEBRASKA

CITY           SKY/WX    TMP DP  RH WIND       PRES   REMARKS
NORFOLK        SUNNY     83  64  52 SE17G25   29.89R
6HR MIN TEMP:  81; 6HR MAX TEMP:  86;

ALBION         SUNNY     85  65  52 S22       29.85F
BLAIR          PTSUNNY   77  61  56 SE14      29.98R
COLUMBUS *     SUNNY     84  64  51 SE14G28   29.89S
FREMONT        PTSUNNY   82  63  53 E13G21    29.95R
TEKAMAH        PTSUNNY   80  63  55 E16       29.98R
6HR MIN TEMP:  80; 6HR MAX TEMP:  84;

WAYNE          PTSUNNY   81  65  59 SE20G26   29.91F
$$

NEZ050>053-065>068-078-088>093-250100-
SOUTHEAST NEBRASKA

CITY           SKY/WX    TMP DP  RH WIND       PRES   REMARKS
LINCOLN        SUNNY     86  63  45 S24       29.91F
6HR MIN TEMP:  82; 6HR MAX TEMP:  89;

OMAHA EPPLEY   PTSUNNY   79  60  52 SE18      29.97R
6HR MIN TEMP:  79; 6HR MAX TEMP:  84;

BEATRICE       SUNNY     84  65  52 SE17G24   29.93F
FALLS CITY     SUNNY     81  63  54 SE13      29.97F
6HR MIN TEMP:  80; 6HR MAX TEMP:  85;

NEBRASKA CITY  SUNNY     79  61  53 SE12G20   29.97S
PLATTSMOUTH    MOSUNNY   78  60  53 SE10G17   29.98R
$$

NEZ044-045-051>053-067-250100-
OMAHA AREA

CITY           SKY/WX    TMP DP  RH WIND       PRES   REMARKS
OMAHA EPPLEY   PTSUNNY   79  60  52 SE18      29.97R
6HR MIN TEMP:  79; 6HR MAX TEMP:  84;

BLAIR          PTSUNNY   77  61  56 SE14      29.98R
FREMONT        PTSUNNY   82  63  53 E13G21    29.95R
MILLARD        PTSUNNY   79  64  59 SE15G23   29.96R
OFFUTT AFB     PTSUNNY   78  64  61 SE17      29.97R
PLATTSMOUTH    MOSUNNY   78  60  53 SE10G17   29.98R
WAHOO          FAIR      83  62  48 SE13G22   29.93R
$$



USA.gov is the U.S. government's official web portal to all federal, state and local government web resources and services.